Vorticity
nan nan nan nan nan nan nan nan nan nan nan nan nan nan nan nan nan nan nan nan nan nan nan nan nan nan nan nan nan nan nan nan nan nan nan nan nan nan nan nan nan nan nan nan nan nan nan nan nan
nan 6 4 6 9 8 7 8 5 -4 3 8 9 10 5 7 9 9 9 11 14 9 7 9 4 5 5 4 5 5 6 5 5 5 5 6 7 6 5 5 6 8 6 5 6 6 5 5 nan
nan 5 7 5 4 6 2 7 4 -3 6 7 9 6 9 11 6 6 12 14 12 8 5 9 7 7 6 5 5 5 5 5 5 5 4 4 4 2 2 5 6 6 6 6 5 5 5 5 nan
nan 10 4 3 2 5 2 4 2 2 8 2 4 8 6 6 5 7 11 12 9 7 5 7 7 6 6 6 5 4 4 5 6 5 6 6 3 3 3 4 7 6 5 6 6 5 5 5 nan
nan 5 4 3 5 9 7 1 2 5 4 3 4 9 7 10 7 9 10 10 9 7 7 3 6 7 5 4 4 5 6 6 6 6 5 7 8 6 5 6 7 6 6 6 6 6 5 5 nan
nan 5 6 1 4 4 6 8 6 7 5 6 5 3 12 9 10 10 10 9 9 7 8 6 6 6 8 6 5 6 7 6 6 7 8 7 7 7 6 5 7 8 7 6 6 6 5 6 nan
nan 5 2 6 6 3 9 13 10 6 5 5 7 9 10 8 10 11 8 8 9 7 5 8 9 4 5 7 8 9 7 7 8 8 8 8 8 8 7 6 7 6 6 6 6 6 6 7 nan
nan 7 9 5 5 6 10 4 5 8 2 6 8 8 5 10 11 8 9 10 7 5 5 7 7 8 6 5 6 7 6 8 9 8 8 7 5 6 7 8 7 7 6 6 6 6 6 6 nan
nan 6 6 6 4 6 3 2 1 5 6 4 7 -0 3 9 8 4 6 8 6 6 6 6 7 6 7 7 6 5 5 4 3 4 5 4 6 7 1 6 10 8 7 7 6 6 4 -1 nan
nan 0 2 9 6 4 2 3 3 3 6 11 7 4 2 5 4 2 3 6 7 5 5 6 7 5 5 5 9 6 3 3 3 4 3 2 6 7 5 5 6 6 5 4 5 4 3 1 nan
nan 1 5 6 5 4 6 6 5 8 6 5 4 9 10 7 3 3 4 6 8 5 6 7 5 8 6 4 5 6 8 8 9 8 5 5 5 7 7 3 5 6 3 3 5 2 2 8 nan
nan 5 5 6 5 7 6 6 8 5 5 3 6 7 10 8 4 5 7 8 8 8 6 5 6 6 4 4 7 7 7 7 8 10 7 4 7 7 5 6 6 4 6 6 5 7 10 8 nan
nan 5 4 6 6 5 6 7 8 7 8 7 12 14 13 9 8 7 7 7 9 9 9 8 6 5 6 6 4 7 7 7 7 9 8 4 7 7 6 7 7 7 8 7 7 7 7 7 nan
nan 8 6 4 7 12 12 10 14 14 11 15 16 16 18 14 10 10 10 9 9 10 9 11 7 6 5 7 7 4 7 9 6 8 10 6 5 8 7 7 7 8 8 8 9 7 7 7 nan
nan 6 12 20 12 9 17 16 12 14 13 14 13 9 9 10 11 10 9 11 11 10 9 9 9 7 8 7 6 7 6 7 7 10 11 7 6 7 6 6 7 8 9 7 7 8 7 7 nan
nan 9 10 9 11 9 7 7 10 12 12 -1 0 6 7 7 6 6 9 10 11 11 12 6 10 8 6 7 7 7 8 7 7 8 12 11 7 5 5 6 7 8 7 7 7 7 7 7 nan
nan 1 6 1 7 8 -0 2 8 -4 -3 1 4 6 6 8 9 13 14 12 11 11 11 10 10 9 5 6 7 9 7 6 7 7 11 13 8 5 4 7 9 7 6 8 7 8 7 6 nan
nan 9 7 3 1 2 2 3 -2 3 7 11 10 11 11 11 11 13 14 14 14 13 11 10 7 11 7 5 6 8 7 8 9 8 10 11 9 8 4 7 9 6 6 8 8 8 8 8 nan
nan 8 5 5 6 12 11 5 8 7 11 13 12 12 10 11 14 16 17 14 13 13 13 13 7 8 7 7 6 8 8 6 7 12 12 7 10 10 5 6 8 7 7 8 8 8 7 6 nan
nan 8 8 9 8 6 4 4 11 23 16 14 8 10 15 12 7 8 13 17 16 14 13 13 11 9 6 5 6 7 10 10 10 10 12 9 10 9 9 9 8 7 8 10 8 6 5 8 nan
nan 7 6 4 7 13 15 15 11 19 7 4 13 15 7 6 8 7 8 11 14 16 16 15 13 7 8 5 4 8 8 10 11 9 10 11 8 8 8 7 10 9 7 10 9 7 4 9 nan
nan 11 10 10 9 9 11 13 13 8 1 6 11 5 4 4 7 9 9 9 11 14 16 15 16 11 12 9 8 6 2 4 8 10 9 10 11 8 7 8 9 9 8 10 7 7 6 9 nan
nan 13 11 9 5 10 9 6 5 -3 4 12 6 5 6 8 7 7 9 10 12 12 15 18 16 15 14 9 5 4 4 4 10 13 10 8 10 9 8 7 9 10 10 11 10 8 8 6 nan
nan 9 9 9 14 11 15 7 0 -2 16 13 3 4 5 9 12 10 10 9 9 10 11 17 17 18 15 9 7 6 3 4 6 9 8 8 9 11 10 7 9 9 11 11 10 7 10 8 nan
nan 6 10 13 7 5 7 10 7 4 10 7 5 6 10 10 11 9 8 7 6 7 11 13 17 22 11 11 9 10 7 8 7 6 8 8 6 10 11 9 8 9 11 9 10 9 11 6 nan
nan 7 10 7 -0 -0 6 12 5 10 4 1 4 6 8 9 8 10 8 7 7 7 8 10 17 21 17 17 10 9 9 6 12 9 8 8 10 12 10 7 9 11 10 10 9 7 11 11 nan
nan 8 6 13 13 11 10 10 12 -4 -8 3 3 6 5 7 6 7 8 8 7 8 9 9 12 22 27 15 13 12 12 9 10 10 8 10 12 15 12 9 9 9 9 10 7 10 9 13 nan
nan 11 11 9 11 12 8 9 12 -2 5 5 2 6 5 6 7 9 9 8 7 7 9 9 11 16 23 26 18 13 11 12 11 11 11 12 13 14 10 8 7 9 10 9 10 9 9 9 nan
nan 4 6 6 13 12 14 4 2 3 6 2 5 7 7 6 8 10 9 9 10 12 12 7 7 12 27 25 16 13 13 12 11 11 11 12 13 11 9 6 7 6 9 9 10 10 10 10 nan
nan nan nan nan nan nan nan nan nan nan nan nan nan nan nan nan nan nan nan nan nan nan nan nan nan nan nan nan nan nan nan nan nan nan nan nan nan nan nan nan nan nan nan nan nan nan nan nan nan
CAPE
0 0 0 0 0 0 0 0 0 0 0 0 0 17 335 446 343 841 1652 1535 1150 869 893 1414 1473 1652 1817 1843 1860 1976 2116 2190 2198 2181 2076 1921 1919 2001 2198 2198 1899 1929 1398 1227 1015 863 451 3 0
0 0 0 0 0 0 0 0 0 0 0 0 0 65 382 490 1085 1600 1895 1470 1115 1081 1034 1005 1122 1548 1747 1799 1856 1945 2119 2137 2040 1932 1861 1934 2139 2122 1878 1709 1542 1539 1177 877 611 136 0 0 0
0 0 0 0 0 0 0 0 0 0 0 0 0 13 111 679 1594 1889 1753 1493 1085 1065 951 966 1046 1443 1636 1743 1820 1858 1904 1852 1774 1752 1959 1920 1792 1551 1258 1275 1189 871 654 235 2 0 0 0 0
0 0 0 0 0 0 0 0 0 0 0 0 0 0 279 1220 1542 1772 1678 1487 1274 1021 945 676 797 1380 1573 1709 1746 1554 1530 1551 1479 1276 1373 976 993 1075 794 959 781 309 33 0 0 0 0 0 0
0 0 0 0 0 0 0 0 0 0 0 0 0 0 0 1241 1476 1685 1607 1420 1436 1015 1019 1218 718 1167 1310 1708 1536 1488 1236 1157 1152 1045 1347 1430 1323 923 663 538 235 0 0 0 0 0 0 0 0
0 0 0 0 0 0 0 0 0 0 0 0 0 0 0 1176 1486 1770 1468 1387 1534 1120 1110 1365 801 909 1160 1109 1349 1191 1102 1038 976 1057 1171 1219 994 660 253 25 0 0 0 0 0 0 0 0 0
0 0 0 0 0 0 0 0 0 0 0 0 0 0 0 612 1134 1422 1212 1231 1435 1258 1262 1466 968 1151 962 1115 1087 899 855 796 861 837 852 678 358 118 5 0 0 0 0 0 0 0 0 0 0
0 0 0 0 0 0 0 0 0 0 0 0 0 0 0 345 1239 1152 1020 1004 1195 967 921 1406 1571 1421 1499 1353 697 610 590 562 620 563 339 60 0 1 0 0 0 0 0 0 0 0 0 0 0
0 0 0 0 0 0 0 0 0 0 0 0 0 0 0 578 1067 1129 788 941 1100 843 982 1322 1538 1801 1581 1572 1059 564 584 417 266 195 9 0 2 0 0 0 0 0 0 0 0 0 0 0 0
0 0 0 0 0 0 0 0 0 0 0 0 0 0 0 319 817 997 1022 953 1084 834 882 1026 1410 1842 1583 1431 1242 980 646 572 390 139 0 77 3 0 0 0 0 0 0 0 0 0 0 0 0
0 0 0 0 0 0 0 0 0 0 0 0 0 0 0 0 303 664 805 1076 1146 1090 950 1102 1371 1723 1822 1424 1666 1421 1166 752 301 44 34 9 0 0 0 0 0 0 0 0 0 0 0 0 0
0 0 0 0 0 0 0 0 0 0 0 0 0 0 0 0 0 0 324 762 1187 1312 1217 933 1179 1193 1388 1563 1280 1164 758 319 24 20 8 2 0 0 0 0 0 0 0 0 0 0 0 0 0
0 0 0 0 0 0 0 0 0 0 0 0 0 0 0 0 0 0 0 46 593 1087 1033 1103 946 866 783 1834 1451 1018 486 3 0 0 8 0 0 0 0 0 0 0 0 0 0 0 0 0 0
0 0 0 0 0 0 0 0 0 0 0 0 0 0 0 0 0 0 0 0 176 938 897 935 835 701 933 1165 1164 621 31 1 0 0 0 0 0 0 0 0 0 0 0 0 0 0 0 0 0
0 0 0 0 0 0 0 0 0 0 0 0 0 0 0 0 0 0 0 0 134 582 1057 808 635 922 813 769 741 265 1 0 0 0 0 0 0 0 0 0 0 0 0 0 0 0 0 0 0
0 0 0 0 0 0 0 0 0 0 0 0 0 0 0 0 0 0 0 11 128 328 815 1343 530 380 394 339 35 5 4 0 0 0 0 0 0 0 0 0 0 0 0 0 0 0 0 0 0
0 0 0 0 0 0 0 0 0 0 0 0 0 0 0 0 0 0 0 0 102 295 628 1131 1034 454 196 28 2 2 2 1 0 0 0 0 0 0 0 0 0 0 0 0 0 0 0 0 0
0 0 0 0 0 0 0 0 0 0 0 0 0 0 0 0 0 0 0 0 0 254 584 909 1227 475 411 11 1 1 1 0 0 0 0 0 0 0 0 0 0 0 0 0 0 0 0 0 0
0 0 0 0 0 0 0 0 0 0 0 0 0 0 0 0 0 0 0 0 0 67 488 862 1179 472 105 3 1 0 1 0 0 0 0 0 0 0 0 0 0 0 0 0 0 0 0 0 0
0 0 0 0 0 0 0 0 0 0 0 0 0 0 0 0 0 0 0 0 0 0 352 862 1144 874 130 35 2 1 1 0 0 0 0 0 0 0 0 0 0 0 0 0 0 0 0 0 0
0 0 0 0 0 0 0 0 0 0 0 0 0 0 0 0 0 0 0 0 0 0 185 539 1050 1177 84 44 3 0 0 0 0 0 0 0 0 0 0 0 0 0 0 0 0 0 0 0 0
0 0 0 0 0 0 0 0 0 0 0 0 0 0 0 0 0 0 0 0 0 0 64 430 644 1056 191 15 1 0 0 0 0 0 0 0 0 0 0 0 0 0 0 0 0 0 0 0 0
0 0 0 0 0 0 0 0 0 0 0 0 0 0 0 0 0 0 0 0 0 0 0 147 608 992 473 3 1 1 0 0 0 0 0 0 0 0 0 0 0 0 0 0 0 0 0 0 0
0 0 0 0 1 0 0 0 0 0 0 0 0 0 0 0 0 0 0 0 0 0 0 2 402 852 572 7 3 6 1 0 0 0 0 1 0 0 0 0 0 0 0 0 0 0 0 0 0
0 0 0 0 2 0 0 0 0 0 0 0 0 0 0 0 0 0 0 1 4 0 0 0 7 533 937 5 4 4 6 0 0 0 0 0 1 3 0 0 0 0 0 0 0 0 0 0 0
0 0 0 0 0 0 0 0 0 0 0 0 0 0 0 0 0 0 0 1 9 16 11 9 9 126 772 137 11 3 2 0 0 0 0 0 0 3 0 0 0 0 0 0 0 0 0 0 0
1 0 2 6 2 19 0 0 0 0 0 0 0 0 0 0 0 0 0 0 1 13 14 20 14 89 502 623 11 3 1 0 0 0 0 0 0 0 0 0 0 0 0 0 0 0 0 0 0
0 0 2 62 31 24 11 14 4 0 0 0 0 0 0 0 0 0 0 0 0 0 9 53 35 18 131 687 9 0 1 0 0 0 0 0 0 1 3 0 0 0 0 0 0 0 0 0 0
0 0 5 10 30 22 7 2 0 0 0 0 0 0 0 0 0 0 0 0 0 0 1 27 36 12 1 31 0 0 0 0 0 0 0 0 3 6 3 0 0 0 0 0 0 0 0 0 0
0 0 53 43 20 45 6 13 0 0 0 0 0 0 0 0 0 12 6 0 0 0 16 0 0 1 0 0 0 0 0 0 0 0 4 3 2 2 0 0 0 1 2 1 0 0 0 0 0